Regional Weather Roundup
Issued by NWS

Home | Current Version | Previous Version | Text Only | Print | Product List | Glossary On
Versions: 1 2 3 4 5 6 7 8 9 10 11 12 13 14 15 16 17 18 19 20 21 22 23 24 25 26 27 28 29 30 31 32 33 34 35 36 37 38 39 40 41 42 43 44 45 46 47 48 49 50
000
ASUS43 KOAX 251710
RWRNE

WEATHER ROUNDUP FOR NEBRASKA
NATIONAL WEATHER SERVICE OMAHA NE
1200 PM CDT TUE APR 25 2017

NOTES: SATELLITE DATA IS BEING USED TO AUGMENT CLOUD COVER ABOVE
       12000 FEET.
       "FAIR" INDICATES FEW OR NO CLOUDS BELOW 12,000 FEET WITH NO
       SIGNIFICANT WEATHER AND/OR OBSTRUCTIONS TO VISIBILITY.

  * THESE STATIONS DO NOT REPORT WEATHER SUCH AS RAIN...SNOW OR FOG.

NEZ001>004-019>022-054>056-251800-
NEBRASKA PANHANDLE

CITY           SKY/WX    TMP DP  RH WIND       PRES   REMARKS
SCOTTSBLUFF    CLOUDY    49  42  77 NE23G30   29.57R
ALLIANCE       CLOUDY    41  38  89 NE16      29.61R
CHADRON        CLOUDY    35  31  85 NE21G26   29.68R WCI  24
KIMBALL        CLOUDY    56  34  43 NW23G29   29.59R
SIDNEY         MOSUNNY   54  38  54 NW15G22   29.58R
$$

NEZ057>060-069>072-079>082-251800-
SOUTHWEST NEBRASKA

CITY           SKY/WX    TMP DP  RH WIND       PRES   REMARKS
NORTH PLATTE   CLOUDY    43  39  86 NE13      29.61R
IMPERIAL       CLOUDY    47  43  86 N13       29.59R
LEXINGTON      CLOUDY    44  40  86 N13       29.57S
MCCOOK         CLOUDY    48  44  86 NE9       29.57R
OGALLALA       CLOUDY    47  42  83 NE7       29.62R
$$

NEZ005>010-023>029-035>040-094-251800-
NORTH CENTRAL NEBRASKA

CITY           SKY/WX    TMP DP  RH WIND       PRES   REMARKS
VALENTINE      CLOUDY    37  32  82 NE15      29.65S WCI  28
AINSWORTH      CLOUDY    36  35  99 NE18      29.62S WCI  25
BROKEN BOW     CLOUDY    40  32  73 N10       29.59R WCI  33
O`NEILL        DRIZZLE   37  35  93 N16G22    29.62F WCI  27
ORD            CLOUDY    40  36  86 N14       29.57S WCI  32
THEDFORD       CLOUDY    39  37  92 N9        29.64R WCI  32
$$

NEZ041-046>049-061>064-073>077-083>087-251800-
SOUTH CENTRAL NEBRASKA

CITY           SKY/WX    TMP DP  RH WIND       PRES   REMARKS
GRAND ISLAND   CLOUDY    41  40  96 N16       29.58S
AURORA         CLOUDY    42  39  90 N20       29.56R
HASTINGS       CLOUDY    45  39  79 N20G31    29.55S
HEBRON         CLOUDY    49  40  71 N20G25    29.51R
HOLDREGE       CLOUDY    43  40  88 N17       29.55S
KEARNEY *      CLOUDY    43  37  81 N15       29.58R
YORK           CLOUDY    45  41  87 N20       29.54R
$$

NEZ011>018-030>034-042>045-251800-
NORTHEAST NEBRASKA

CITY           SKY/WX    TMP DP  RH WIND       PRES   REMARKS
NORFOLK        CLOUDY    39  36  89 N16G25    29.57R WCI  30
ALBION         RAIN      39  36  87 N10G18    29.58S WCI  33
BLAIR          CLOUDY    49  44  82 N16       29.51R
FREMONT        CLOUDY    49  42  75 N14G20    29.55R
TEKAMAH        CLOUDY    49  41  74 N18       29.55R
WAYNE          LGT RAIN  41  40  99 N15       29.59R
$$

NEZ050>053-065>068-078-088>093-251800-
SOUTHEAST NEBRASKA

CITY           SKY/WX    TMP DP  RH WIND       PRES   REMARKS
LINCOLN        CLOUDY    51  41  68 N16       29.53R
OMAHA EPPLEY   CLOUDY    55  45  68 N17       29.50R
BEATRICE       CLOUDY    57  46  65 N15       29.48R
FALLS CITY     CLOUDY    67  51  56 CALM      29.41F
NEBRASKA CITY  CLOUDY    61  43  51 N15       29.45S
PLATTSMOUTH    CLOUDY    56  42  60 N13       29.48R
$$

NEZ044-045-051>053-067-251800-
OMAHA AREA

CITY           SKY/WX    TMP DP  RH WIND       PRES   REMARKS
OMAHA EPPLEY   CLOUDY    55  45  68 N17       29.50R
BLAIR          CLOUDY    49  44  82 N16       29.51R
FREMONT        CLOUDY    49  42  75 N14G20    29.55R
MILLARD        CLOUDY    53  45  74 N8G16     29.50R
OFFUTT AFB     CLOUDY    56  46  67 NW14      29.49R
PLATTSMOUTH    CLOUDY    56  42  60 N13       29.48R
WAHOO          CLOUDY    49  41  74 N18G26    29.52S
$$




USA.gov is the U.S. government's official web portal to all federal, state and local government web resources and services.